User: anonymous   Login
Location: Waco, TX
(31.5480°N, 97.1670°W)
Time: 04:51:15
(UTC-05:00)
Language:

ISS - Orbit

View from above orbital plane
View from above orbital plane
View from above satellite
View from above satellite

Ground track
Ground track

The orbit data is extracted from the following two-line orbital elements,

1 25544U 98067A   19288.19680970 -.00000326  00000-0  23461-5 0  9991
2 25544  51.6422 126.1774 0007168 149.2825  14.6462 15.50195242193878
Epoch (UTC): 15 October 2019 04:43:24
Eccentricity: 0.0007168
inclination: 51.6422°
perigee height: 411 km
apogee height: 421 km
right ascension of ascending node: 126.1774°
argument of perigee: 149.2825°
revolutions per day: 15.50195242
mean anomaly at epoch: 14.6462°
orbit number at epoch: 19387

The dashed part of the orbit path shows where the satellite is in the earth's shadow,  

DLR